FW8389 Weather Reports


Display with metric or nautical units.
time (UTC)temp
F
wind
direction
speed
MPH
gust
MPH
rain 1hr
in
rain 24hr
in
rain mn
in
humidity
%
barometer
mb
20260510141803 44 284 10.0 20.0 0.00 0.24 0.00 61 1011.1
20260510140924 44 279 12.0 21.0 0.00 0.24 0.00 63 1011.0
20260510140003 44 301 10.0 18.0 0.00 0.24 0.00 64 1011.0
20260510135403 44 303 10.0 17.0 0.00 0.24 0.00 61 1010.8
20260510134503 43 281 11.0 17.0 0.00 0.24 0.00 68 1010.7
20260510133603 43 298 9.0 17.0 0.00 0.24 0.00 69 1010.6
20260510132703 42 285 12.0 19.0 0.00 0.24 0.00 71 1010.6
20260510131803 43 308 9.0 18.0 0.00 0.24 0.00 71 1010.4
20260510130903 42 307 9.0 17.0 0.00 0.24 0.00 74 1010.4
20260510130003 41 279 11.0 19.0 0.00 0.24 0.00 76 1010.3
20260510125403 41 287 10.0 19.0 0.00 0.24 0.00 76 1010.2
20260510124503 40 285 11.0 21.0 0.00 0.24 0.00 78 1010.2
20260510123603 40 286 9.0 16.0 0.00 0.24 0.00 79 1010.1
20260510122724 39 289 9.0 16.0 0.00 0.24 0.00 80 1010.0
20260510121803 38 283 9.0 17.0 0.00 0.24 0.00 81 1009.9
20260510120903 38 283 11.0 17.0 0.00 0.24 0.00 81 1009.7
20260510120003 38 280 11.0 21.0 0.00 0.24 0.00 82 1009.7
20260510115403 37 269 12.0 18.0 0.00 0.24 0.00 82 1009.6
20260510114503 37 265 10.0 17.0 0.00 0.24 0.00 82 1009.5
20260510113603 36 267 11.0 19.0 0.00 0.24 0.00 83 1009.2
20260510112703 36 267 10.0 16.0 0.00 0.24 0.00 83 1009.1
20260510111803 36 266 9.0 14.0 0.00 0.24 0.00 84 1008.9
20260510110903 36 265 9.0 15.0 0.00 0.24 0.00 84 1008.8
20260510110003 35 262 9.0 15.0 0.00 0.24 0.00 85 1008.5
20260510105403 35 264 9.0 15.0 0.00 0.24 0.00 85 1008.4
20260510104503 35 264 10.0 18.0 0.00 0.24 0.00 86 1008.3
20260510103603 34 267 9.0 15.0 0.00 0.24 0.00 86 1008.1
20260510102703 34 270 9.0 13.0 0.00 0.24 0.00 86 1008.1
20260510101803 34 269 9.0 14.0 0.00 0.24 0.00 85 1007.9
20260510100903 34 260 8.0 14.0 0.00 0.24 0.00 85 1007.6
20260510100003 34 262 8.0 14.0 0.00 0.24 0.00 84 1007.5
20260510095403 34 260 8.0 13.0 0.00 0.24 0.00 84 1007.4
20260510094503 35 254 7.0 12.0 0.00 0.24 0.00 83 1007.3
20260510093603 35 251 6.0 14.0 0.00 0.24 0.00 83 1007.2
20260510092703 35 247 5.0 12.0 0.00 0.24 0.00 83 1007.1
20260510091803 35 249 5.0 12.0 0.00 0.24 0.00 83 1007.0
20260510090903 35 250 6.0 10.0 0.00 0.24 0.00 82 1006.8
20260510090003 36 250 6.0 11.0 0.00 0.24 0.00 82 1006.7
20260510085403 36 253 7.0 19.0 0.00 0.24 0.00 82 1006.8
20260510084524 36 256 9.0 19.0 0.00 0.24 0.00 82 1006.5
20260510083624 36 254 8.0 15.0 0.00 0.24 0.00 81 1006.6
20260510082703 36 254 7.0 14.0 0.00 0.24 0.00 81 1006.4
20260510081803 36 250 5.0 10.0 0.00 0.24 0.00 81 1006.3
20260510080903 36 251 6.0 11.0 0.00 0.24 0.00 81 1006.2
20260510080003 36 252 4.0 9.0 0.00 0.24 0.00 81 1006.2
20260510075403 36 252 4.0 9.0 0.00 0.24 0.00 81 1006.1
20260510074503 36 250 4.0 9.0 0.00 0.24 0.00 80 1006.1
20260510073603 36 257 4.0 12.0 0.00 0.24 0.00 80 1005.9
20260510072703 37 257 4.0 7.0 0.00 0.24 0.00 79 1005.8
20260510071803 37 257 5.0 9.0 0.00 0.24 0.00 79 1005.8
20260510070903 37 255 4.0 8.0 0.00 0.24 0.00 79 1005.7
20260510070003 37 259 4.0 9.0 0.00 0.24 0.00 79 1005.6
20260510065403 37 258 5.0 12.0 0.00 0.24 0.00 78 1005.7
20260510064503 37 258 6.0 12.0 0.00 0.24 0.00 78 1005.6
20260510063603 37 260 7.0 13.0 0.00 0.24 0.00 78 1005.6
20260510062724 38 266 8.0 14.0 0.00 0.24 0.00 77 1005.5
20260510061803 38 266 8.0 15.0 0.00 0.24 0.00 77 1005.6
20260510060903 38 265 8.0 14.0 0.00 0.24 0.00 77 1005.5
20260510060003 38 271 9.0 15.0 0.00 0.24 0.00 77 1005.5
20260510055403 38 277 8.0 17.0 0.00 0.24 0.00 77 1005.4
20260510054503 38 277 9.0 15.0 0.00 0.24 0.00 78 1005.4
20260510053603 39 273 12.0 20.0 0.00 0.24 0.00 77 1005.4
20260510052703 39 268 11.0 20.0 0.00 0.24 0.00 78 1005.4
20260510051803 39 271 9.0 15.0 0.00 0.24 0.00 77 1005.3
20260510050903 39 268 11.0 16.0 0.00 0.24 0.00 77 1005.2
20260510050003 40 261 9.0 15.0 0.00 0.24 0.00 77 1005.0
20260510045403 40 260 8.0 16.0 0.00 0.24 0.00 76 1004.9
20260510044503 40 260 9.0 16.0 0.00 0.24 0.00 75 1004.8
20260510043603 40 266 9.0 16.0 0.00 0.24 0.00 74 1004.7
20260510042703 40 262 8.0 14.0 0.00 0.24 0.00 74 1004.6
20260510041804 41 257 5.0 13.0 0.00 0.24 0.00 74 1004.2
20260510040903 41 248 4.0 12.0 0.00 0.24 0.00 73 1004.1
20260510040003 41 252 4.0 7.0 0.00 0.24 0.00 73 1004.0
20260510035424 42 268 6.0 13.0 0.00 0.24 0.24 72 1004.0
20260510034503 42 265 7.0 14.0 0.00 0.24 0.24 71 1003.7
20260510033603 42 258 4.0 10.0 0.00 0.24 0.24 71 1003.6
20260510032703 42 258 3.0 8.0 0.00 0.24 0.24 70 1003.5
20260510031803 43 259 4.0 8.0 0.00 0.24 0.24 69 1003.7
20260510030903 43 261 4.0 9.0 0.00 0.24 0.24 69 1003.6
20260510030024 43 259 3.0 7.0 0.00 0.24 0.24 69 1003.5
20260510025424 43 259 3.0 7.0 0.00 0.24 0.24 68 1003.4
20260510024503 43 259 4.0 10.0 0.00 0.24 0.24 69 1003.4
20260510023603 44 261 5.0 10.0 0.00 0.24 0.24 68 1003.3
20260510022703 44 266 7.0 12.0 0.00 0.24 0.24 67 1003.3
20260510021803 45 275 8.0 13.0 0.00 0.24 0.24 67 1003.2
20260510020903 45 283 7.0 13.0 0.00 0.24 0.24 68 1003.0
20260510020003 45 276 7.0 11.0 0.00 0.24 0.24 69 1002.8
20260510015403 45 276 7.0 11.0 0.00 0.24 0.24 70 1002.7
20260510014503 45 285 5.0 11.0 0.00 0.24 0.24 70 1002.4
20260510013603 46 282 7.0 14.0 0.00 0.24 0.24 69 1002.3
20260510012724 46 288 8.0 17.0 0.00 0.24 0.24 69 1002.3
20260510011803 46 301 5.0 11.0 0.00 0.24 0.24 69 1002.1
20260510010903 47 299 7.0 15.0 0.00 0.24 0.24 67 1001.8
20260510010024 47 288 7.0 15.0 0.00 0.24 0.24 67 1001.7
20260510005403 47 301 5.0 12.0 0.00 0.24 0.24 68 1001.5
20260510004503 47 303 5.0 9.0 0.00 0.24 0.24 69 1001.4
20260510003624 48 320 7.0 15.0 0.00 0.24 0.24 68 1001.2
20260510002724 48 302 6.0 11.0 0.00 0.24 0.24 70 1001.1
20260510001803 48 304 8.0 18.0 0.00 0.24 0.24 71 1001.2
20260510000924 48 287 8.0 15.0 0.00 0.24 0.24 73 1001.0
20260510000003 49 284 10.0 20.0 0.00 0.24 0.24 72 1000.8
20260509235403 49 285 9.0 19.0 0.00 0.24 0.24 73 1000.7
20260509234524 50 291 11.0 19.0 0.00 0.24 0.24 72 1000.4
20260509233603 50 297 10.0 21.0 0.00 0.24 0.24 72 1000.4
20260509232703 51 311 11.0 20.0 0.00 0.24 0.24 72 1000.1
20260509231824 52 309 11.0 21.0 0.00 0.24 0.24 71 999.7
20260509230903 53 285 12.0 24.0 0.00 0.24 0.24 73 999.2
20260509230003 54 269 13.0 25.0 0.00 0.24 0.24 75 998.9
20260509225403 53 260 10.0 21.0 0.00 0.24 0.24 79 998.7
20260509224503 53 243 6.0 12.0 0.00 0.24 0.24 82 998.6
20260509223603 52 230 5.0 11.0 0.00 0.24 0.24 85 998.4
20260509222703 52 218 6.0 10.0 0.00 0.24 0.24 85 998.3
20260509221803 52 208 7.0 12.0 0.00 0.24 0.24 86 998.3
20260509220903 52 206 7.0 12.0 0.00 0.24 0.24 86 998.4
20260509220003 52 210 7.0 12.0 0.00 0.24 0.24 87 998.4
20260509215403 51 204 9.0 13.0 0.00 0.24 0.24 87 998.4
20260509214503 51 196 9.0 18.0 0.00 0.24 0.24 88 998.4
20260509213624 51 192 10.0 15.0 0.01 0.24 0.24 87 998.3
20260509212703 51 182 9.0 17.0 0.03 0.24 0.24 86 998.2
20260509211803 51 184 10.0 17.0 0.12 0.24 0.24 87 998.3
20260509210903 50 189 11.0 17.0 0.15 0.24 0.24 87 998.4
20260509210003 49 194 9.0 15.0 0.24 0.24 0.24 88 998.3
20260509205424 49 191 10.0 17.0 0.24 0.24 0.24 88 998.4
20260509204524 48 189 11.0 19.0 0.24 0.24 0.24 88 998.3
20260509203603 48 200 10.0 19.0 0.23 0.23 0.23 90 998.2
20260509202703 49 256 13.0 20.0 0.21 0.21 0.21 87 998.8
20260509201803 52 210 12.0 21.0 0.12 0.12 0.12 84 998.8
20260509200903 52 204 14.0 22.0 0.09 0.09 0.09 82 997.7
20260509200003 57 192 15.0 29.0 0.00 0.00 0.00 68 997.4
20260509195403 59 198 17.0 37.0 0.00 0.00 0.00 63 996.8
20260509194503 59 189 18.0 35.0 0.00 0.00 0.00 61 996.7
20260509193603 60 184 13.0 32.0 0.00 0.00 0.00 58 996.2
20260509192703 61 186 13.0 31.0 0.00 0.00 0.00 58 996.4
20260509191803 61 178 13.0 31.0 0.00 0.00 0.00 57 996.7
20260509190924 61 185 18.0 34.0 0.00 0.00 0.00 57 996.7
20260509190003 61 186 19.0 32.0 0.00 0.00 0.00 55 996.8
20260509185403 61 188 17.0 28.0 0.00 0.00 0.00 54 996.8
20260509184524 61 186 19.0 32.0 0.00 0.00 0.00 54 996.8
20260509183624 61 181 16.0 32.0 0.00 0.00 0.00 53 997.0
20260509182703 61 180 14.0 23.0 0.00 0.00 0.00 54 997.0
20260509181803 61 180 13.0 25.0 0.00 0.00 0.00 56 996.9
20260509180903 60 177 12.0 25.0 0.00 0.00 0.00 56 997.0
20260509180003 60 173 13.0 23.0 0.00 0.00 0.00 56 997.4
20260509175424 59 182 14.0 24.0 0.00 0.00 0.00 56 997.3
20260509174503 58 189 16.0 27.0 0.00 0.00 0.00 60 997.8
20260509173624 59 181 15.0 28.0 0.00 0.00 0.00 56 998.2
20260509172703 59 175 13.0 29.0 0.00 0.00 0.00 56 997.9
20260509171803 59 174 13.0 28.0 0.00 0.00 0.00 59 998.0
20260509170903 59 185 12.0 23.0 0.00 0.00 0.00 58 998.3
20260509170024 59 178 11.0 20.0 0.00 0.00 0.00 58 998.5
20260509165403 60 173 11.0 23.0 0.00 0.00 0.00 60 998.4
20260509164503 59 170 10.0 18.0 0.00 0.00 0.00 58 998.5
20260509163603 59 164 9.0 18.0 0.00 0.00 0.00 58 999.1
20260509162703 58 160 8.0 12.0 0.00 0.00 0.00 62 999.2
20260509161803 57 161 6.0 10.0 0.00 0.00 0.00 65 999.3
20260509160903 56 182 8.0 16.0 0.00 0.00 0.00 68 1000.0
20260509160003 56 176 6.0 11.0 0.00 0.00 0.00 72 1000.5
20260509155403 55 178 6.0 13.0 0.00 0.00 0.00 73 1000.6
20260509154524 54 190 8.0 13.0 0.00 0.00 0.00 73 1001.1
20260509153603 53 193 6.0 12.0 0.00 0.00 0.00 73 1001.3
20260509152703 53 193 7.0 12.0 0.00 0.00 0.00 72 1001.4
20260509151803 53 194 7.0 10.0 0.00 0.00 0.00 73 1001.2
20260509150903 54 193 8.0 12.0 0.00 0.00 0.00 73 1001.0
20260509150003 54 172 6.0 12.0 0.00 0.00 0.00 74 1000.9
20260509145403 54 191 7.0 15.0 0.00 0.00 0.00 73 1000.9
20260509144503 54 186 7.0 13.0 0.00 0.00 0.00 76 1001.0
20260509143603 53 194 9.0 14.0 0.00 0.00 0.00 76 1001.2
20260509142703 54 200 8.0 14.0 0.00 0.00 0.00 78 1001.4